BMCB-14 Weather Reports


time (UTC)temp
C
wind
direction
speed
KPH
gust
KPH
rain 1hr
cm
rain 24hr
cm
rain mn
cm
humidity
%
barometer
mb
20260507022044 6 0 0.0 0.0 0.00 0.71 0.00 98 1015.1
20260507021046 6 0 0.0 0.0 0.00 0.74 0.00 98 1015.0
20260507020045 7 0 0.0 0.0 0.00 0.76 0.00 98 1014.9
20260507015043 7 0 0.0 0.0 0.00 0.79 0.00 98 1014.9
20260507014044 7 0 0.0 0.0 0.00 0.79 0.00 98 1014.9
20260507013043 7 0 0.0 0.0 0.00 0.81 0.00 98 1014.9
20260507012043 7 0 0.0 0.0 0.00 0.81 0.00 99 1014.9
20260507005045 7 0 0.0 0.0 0.00 0.84 0.00 99 1014.7
20260507004046 7 0 0.0 0.0 0.00 0.84 0.00 99 1014.7
20260507003044 7 0 0.0 0.0 0.00 0.86 0.00 99 1014.7
20260507002043 7 0 0.0 0.0 0.00 0.86 0.00 99 1014.6
20260507001045 7 0 0.0 0.0 0.00 0.86 0.00 99 1014.6
20260507000043 7 0 0.0 0.0 0.00 0.86 0.00 99 1014.5
20260506235047 7 0 0.0 0.0 0.00 0.86 0.00 99 1014.5
20260506234047 7 0 0.0 0.0 0.00 0.86 0.00 99 1014.5
20260506233046 7 0 0.0 0.0 0.00 0.89 0.00 99 1014.5
20260506232047 7 0 0.0 0.0 0.00 0.89 0.00 99 1014.4
20260506231047 7 0 0.0 0.0 0.00 0.89 0.00 99 1014.3
20260506230049 7 0 0.0 0.0 0.00 0.91 0.00 99 1014.3
20260506225048 7 0 0.0 0.0 0.00 0.94 0.00 99 1014.2
20260506224049 7 0 0.0 0.0 0.00 0.97 0.00 99 1014.2
20260506223048 7 0 0.0 0.0 0.00 0.99 0.00 10 1014.1
20260506222048 7 0 0.0 0.0 0.00 0.99 0.00 10 1014.0
20260506221048 7 0 0.0 0.0 0.00 1.02 0.00 10 1013.9
20260506220056 7 0 0.0 0.0 0.00 1.07 0.00 10 1013.8
20260506215055 7 0 0.0 0.0 0.00 1.09 1.07 10 1013.8
20260506214048 7 0 0.0 0.0 0.00 1.12 1.07 10 1013.7
20260506212051 6 0 0.0 0.0 0.00 1.17 1.07 10 1013.6
20260506211050 6 0 0.0 0.0 0.00 1.19 1.07 10 1013.5
20260506210050 6 0 0.0 0.0 0.00 1.22 1.07 10 1013.4
20260506205049 6 0 0.0 0.0 0.00 1.27 1.07 10 1013.3
20260506204050 6 0 0.0 0.0 0.00 1.27 1.07 10 1013.2
20260506203051 6 0 0.0 0.0 0.00 1.30 1.07 10 1013.1
20260506202050 6 0 0.0 0.0 0.00 1.32 1.07 10 1013.1
20260506201053 6 0 0.0 0.0 0.00 1.35 1.07 99 1013.0
20260506200049 6 0 0.0 0.0 0.00 1.37 1.07 99 1013.0
20260506195048 6 0 0.0 0.0 0.00 1.37 1.07 98 1012.9
20260506194049 6 0 0.0 0.0 0.00 1.40 1.07 98 1012.8
20260506193048 6 0 0.0 0.0 0.00 1.42 1.07 98 1012.7
20260506192049 7 0 0.0 0.0 0.00 1.45 1.07 98 1012.6
20260506191048 7 0 0.0 0.0 0.00 1.47 1.07 98 1012.6
20260506190052 7 0 0.0 0.0 0.00 1.50 1.07 97 1012.5
20260506185049 7 0 0.0 0.0 0.00 1.52 1.07 96 1012.3
20260506184050 8 0 0.0 0.0 0.00 1.55 1.07 95 1012.2
20260506183050 8 0 0.0 0.0 0.00 1.57 1.07 94 1012.1
20260506181046 9 0 0.0 0.0 0.00 1.60 1.07 91 1011.8
20260506180051 10 0 0.0 0.0 0.00 1.63 1.07 89 1011.7
20260506175049 10 0 0.0 0.0 0.00 1.65 1.07 87 1011.5
20260506174050 10 0 0.0 0.0 0.00 1.65 1.07 88 1011.4
20260506173048 10 0 0.0 0.0 0.00 1.68 1.07 89 1011.2
20260506172050 10 0 0.0 0.0 0.00 1.68 1.07 91 1011.2
20260506171048 10 0 0.0 0.0 0.00 1.68 1.07 92 1011.1
20260506170045 10 0 0.0 0.0 0.00 1.70 1.07 92 1011.1
20260506165046 10 0 0.0 0.0 0.00 1.70 1.07 92 1011.1
20260506164048 10 0 0.0 0.0 0.00 1.70 1.07 93 1011.0
20260506163047 10 0 0.0 0.0 0.00 1.73 1.07 94 1011.0
20260506161046 10 0 0.0 0.0 0.00 1.73 1.07 95 1011.0
20260506160046 10 0 0.0 0.0 0.00 1.73 1.07 95 1011.1
20260506154051 10 0 0.0 0.0 0.00 1.73 1.07 94 1010.9
20260506153048 10 0 0.0 0.0 0.00 1.73 1.07 93 1010.9
20260506152048 10 0 0.0 0.0 0.00 1.73 1.07 92 1010.8
20260506151049 10 0 0.0 0.0 0.00 1.73 1.07 91 1010.7
20260506150047 10 0 0.0 0.0 0.00 1.73 1.07 90 1010.6
20260506145048 10 0 0.0 0.0 0.00 1.73 1.07 89 1010.6
20260506144047 10 0 0.0 0.0 0.00 1.73 1.07 91 1010.6
20260506143048 10 0 0.0 0.0 0.00 1.73 1.07 90 1010.6
20260506142047 11 0 0.0 0.0 0.00 1.73 1.07 92 1010.6
20260506141048 10 0 0.0 0.0 0.00 1.73 1.07 92 1010.6
20260506140054 10 0 0.0 0.0 0.03 1.73 1.07 94 1010.7
20260506134048 10 0 0.0 0.0 0.03 1.75 1.07 94 1010.7
20260506131045 10 0 0.0 0.0 0.03 1.75 1.07 95 1010.7
20260506130046 10 0 0.0 0.0 0.05 1.75 1.07 94 1010.6
20260506125047 10 0 0.0 0.0 0.03 1.73 1.04 95 1010.6
20260506124047 9 0 0.0 0.0 0.03 1.73 1.04 95 1010.5
20260506123047 9 0 0.0 0.0 0.03 1.73 1.04 95 1010.5
20260506122049 9 0 0.0 0.0 0.03 1.73 1.04 97 1010.4
20260506120045 9 0 0.0 0.0 0.05 1.73 1.04 97 1010.3
20260506115049 9 0 0.0 0.0 0.03 1.70 1.02 98 1010.2
20260506114049 9 0 0.0 0.0 0.05 1.70 1.02 97 1010.2
20260506112046 10 0 0.0 0.0 0.05 1.70 1.02 98 1010.0
20260506111050 10 0 0.0 0.0 0.05 1.70 1.02 98 1010.1
20260506105046 9 0 0.0 0.0 0.05 1.68 0.99 10 1010.1
20260506104046 9 0 0.0 0.0 0.05 1.68 0.99 10 1010.1
20260506103049 9 0 0.0 0.0 0.05 1.65 0.99 10 1010.0
20260506102047 8 0 0.0 0.0 0.05 1.65 0.99 10 1010.1
20260506101045 8 0 0.0 0.0 0.05 1.65 0.97 10 1010.0
20260506100044 8 0 0.0 0.0 0.05 1.65 0.97 10 1009.9
20260506095047 8 0 0.0 0.0 0.05 1.63 0.94 10 1009.8
20260506094047 8 0 0.0 0.0 0.05 1.63 0.94 10 1009.8
20260506093046 8 0 0.0 0.0 0.08 1.63 0.94 10 1009.7
20260506092045 8 0 0.0 0.0 0.05 1.60 0.91 10 1009.7
20260506091047 8 0 0.0 0.0 0.08 1.60 0.91 10 1009.6
20260506090048 8 0 0.0 0.0 0.05 1.57 0.89 10 1009.6
20260506085048 8 0 0.0 0.0 0.08 1.57 0.89 10 1009.5
20260506084045 8 0 0.0 0.0 0.05 1.55 0.89 10 1009.4
20260506083044 7 0 0.0 0.0 0.08 1.55 0.89 10 1009.3
20260506082046 7 0 0.0 0.0 0.05 1.55 0.86 10 1009.3
20260506081046 7 0 0.0 0.0 0.05 1.55 0.86 10 1009.3
20260506073044 7 0 0.0 0.0 0.05 1.50 0.81 10 1009.0
20260506071045 7 0 0.0 0.0 0.05 1.47 0.79 10 1008.9
20260506062045 7 0 0.0 0.0 0.15 1.45 0.76 10 1008.6
20260506061044 7 0 0.0 0.0 0.15 1.42 0.74 10 1008.5
20260506051047 7 0 0.0 0.0 0.10 1.30 0.61 10 1008.6
20260506045042 7 0 0.0 0.0 0.13 1.27 0.58 10 1008.5
20260506044045 7 0 0.0 0.0 0.13 1.24 0.56 10 1008.5
20260506042044 7 0 0.0 0.0 0.15 1.22 0.53 10 1008.5
20260506041044 7 0 0.0 0.0 0.15 1.22 0.53 10 1008.4
20260506040046 7 0 0.0 0.0 0.15 1.19 0.51 10 1008.4
20260506035047 7 0 0.0 0.0 0.13 1.17 0.48 10 1008.4
20260506033047 7 0 0.0 0.0 0.10 1.12 0.43 10 1008.5
20260506032045 7 0 0.0 0.0 0.08 1.09 0.43 10 1008.5